Presure
202 206 192 204 195 196 214 202 196 202 179 191 202 202 204 202 213 210 264 234 229 242 264 222 185 200 234 180 198 181 202 186 180 167 181 168 168 169 189 138 191 164 190 192
178 195 196 193 196 194 190 205 193 192 193 191 193 202 197 194 207 204 274 245 231 232 247 241 243 233 262 282 192 181 182 191 178 182 173 172 183 185 167 171 195 185 154 166
201 191 214 178 201 183 187 194 196 197 202 191 187 205 202 191 199 205 264 237 252 247 224 219 265 250 256 261 227 231 242 198 191 185 147 168 173 172 162 173 190 177 170 166
198 206 205 211 201 203 195 186 187 192 201 177 181 211 200 192 217 202 255 223 259 244 239 246 259 235 245 251 254 217 224 183 200 140 157 179 163 182 181 183 170 164 168 171
209 198 203 207 201 206 191 200 194 190 198 190 183 193 196 189 209 196 258 238 218 245 245 237 261 235 230 240 241 216 228 189 179 145 198 188 173 127 162 169 179 178 163 179
211 202 202 198 203 203 205 195 200 190 191 194 179 208 196 185 198 201 259 252 221 227 232 233 253 250 232 237 243 240 231 220 224 190 218 203 190 166 184 167 174 181 166 180
217 204 204 205 208 196 185 192 181 192 193 190 184 200 196 187 198 186 218 234 252 224 232 224 232 242 244 218 242 234 243 224 221 244 215 241 234 233 214 211 248 224 221 209
196 206 205 206 210 206 204 198 191 176 190 189 185 191 203 193 189 200 211 212 268 243 223 221 231 226 233 237 244 230 243 219 225 227 222 229 230 171 220 222 220 226 210 225
217 202 202 206 205 210 197 204 211 190 184 183 189 185 207 190 195 195 190 197 202 209 249 225 222 229 226 232 238 242 245 198 252 255 234 243 214 217 239 217 216 211 192 209
212 211 208 213 217 222 249 208 192 212 183 185 187 183 200 194 182 188 187 187 194 203 242 262 246 229 219 215 222 225 233 236 182 170 240 220 223 219 218 184 233 224 223 221
225 228 223 229 229 222 224 235 210 205 184 178 187 181 194 194 195 190 177 190 202 194 194 211 244 252 250 243 233 217 216 221 226 222 225 226 227 234 229 212 205 214 210 207
240 237 228 227 226 228 266 232 227 207 203 191 192 178 185 201 180 192 189 174 166 196 209 199 227 209 241 252 236 248 240 216 221 224 231 217 220 210 211 205 200 204 197 197
276 281 274 268 263 274 267 238 232 225 206 192 179 182 206 202 185 192 190 177 189 192 195 182 198 213 200 234 255 258 239 250 221 219 227 228 209 208 203 205 197 205 201 203
279 262 272 266 241 233 241 222 221 221 214 203 200 203 208 195 182 184 189 174 197 191 190 190 196 193 211 205 229 252 260 247 265 224 214 219 210 199 216 198 183 193 191 198
289 289 277 267 263 260 243 240 237 227 215 203 196 206 207 194 187 179 188 187 181 179 185 179 197 207 195 215 208 224 243 256 246 239 236 221 216 210 202 204 197 192 202 187
279 270 267 277 270 263 268 226 237 220 223 212 206 193 206 198 187 178 187 193 196 195 196 191 189 162 211 181 205 204 216 226 239 244 247 249 230 209 201 206 202 206 189 184
274 265 259 267 257 252 258 242 214 228 219 197 209 194 201 207 195 184 181 188 192 189 192 198 193 191 192 179 186 197 199 188 214 228 222 222 224 204 197 192 202 183 182 183
258 261 249 256 251 252 244 231 226 224 211 220 195 196 208 207 197 190 181 180 179 180 189 197 202 199 178 195 193 192 209 197 179 180 221 220 219 225 223 226 225 222 218 217
268 271 260 260 252 250 239 227 222 217 220 213 196 198 207 209 193 192 197 187 183 188 182 196 195 194 192 199 193 198 179 172 209 216 205 204 208 217 208 215 214 213 212 210
268 264 263 264 255 254 232 224 223 222 216 210 199 200 210 206 187 198 199 200 192 189 193 190 191 196 191 194 187 208 197 211 193 201 210 206 208 209 180 211 211 210 213 214
258 252 262 259 257 250 232 230 230 227 210 216 206 201 214 205 201 200 202 194 179 189 183 180 182 185 192 192 184 181 183 202 206 199 200 214 208 206 215 214 212 210 211 212
261 253 259 262 257 187 237 228 228 232 211 215 207 209 212 199 206 206 194 198 196 189 193 196 196 191 192 176 186 192 200 208 206 205 210 218 211 212 211 214 215 206 209 205
264 254 255 268 257 233 232 233 235 231 216 211 216 216 212 209 209 206 192 192 188 193 201 209 184 183 195 194 129 199 197 203 192 204 208 215 216 212 213 205 214 213 213 203
258 267 240 270 250 234 235 238 231 228 223 215 219 218 218 210 209 213 203 197 192 200 209 215 216 191 200 191 193 202 202 204 191 206 204 211 223 215 214 214 215 214 208 206
267 275 248 269 252 221 238 233 227 223 221 218 219 217 220 219 210 203 208 214 200 198 194 189 196 192 201 193 205 199 204 196 200 212 204 206 223 221 217 213 215 213 210 209
274 272 264 256 265 253 234 223 234 222 222 227 177 221 217 210 210 201 200 210 199 198 211 204 196 210 196 209 199 201 199 204 197 213 209 206 221 219 216 213 214 214 217 206
Wind_Speed
50 44 56 38 35 40 41 39 42 39 38 40 34 36 36 35 35 33 25 25 29 34 24 24 22 31 30 57 65 63 89 87 89 67 85 73 78 77 86 54 87 64 89 89
43 50 57 41 42 39 37 39 41 37 35 36 34 35 36 33 32 28 23 22 30 32 21 26 25 22 18 10 72 67 70 89 89 96 82 83 91 92 73 82 89 93 43 68
55 56 62 39 55 38 39 39 34 40 32 34 33 36 33 33 32 28 23 22 25 23 25 22 12 12 11 14 47 53 52 92 92 86 58 77 83 83 69 77 93 88 75 67
62 67 64 59 54 56 47 41 34 36 37 34 32 31 32 33 32 24 21 19 14 15 18 14 10 11 12 19 22 56 66 81 86 43 61 91 60 91 92 89 74 76 74 82
67 64 56 46 50 53 52 43 39 38 38 32 34 31 30 33 31 20 19 16 16 12 11 8 11 15 17 22 27 51 52 75 71 35 102 99 77 32 56 75 95 93 66 95
68 68 59 54 59 47 55 44 42 39 34 32 32 31 29 32 31 25 21 13 12 11 6 6 4 11 19 25 28 43 52 58 60 72 59 59 100 60 93 65 86 97 65 92
71 64 61 53 57 44 43 53 38 37 37 34 30 28 28 33 31 24 24 16 13 9 11 9 7 6 12 21 28 36 40 50 52 46 61 45 53 56 78 82 50 77 86 92
56 64 70 69 66 62 59 50 42 39 42 29 29 29 32 31 29 22 24 16 13 9 8 8 11 10 12 16 19 23 35 46 46 44 47 46 48 57 58 58 56 61 63 70
77 59 70 72 67 70 55 53 51 49 34 34 30 29 31 31 24 23 19 14 7 6 7 11 10 12 14 15 17 19 22 23 29 33 42 46 56 57 43 58 63 68 73 66
77 75 78 82 73 69 61 62 47 47 39 42 31 29 32 32 28 24 21 21 16 14 12 6 10 12 13 15 15 15 19 21 27 28 29 42 42 45 43 39 36 37 41 45
82 83 82 84 72 67 70 67 62 49 47 46 37 32 31 34 29 24 25 21 12 17 15 11 8 6 13 18 21 20 21 22 23 29 29 33 36 34 33 41 48 39 43 49
86 84 81 79 69 68 66 68 65 53 52 54 40 34 33 38 35 26 24 28 31 15 16 14 11 10 12 10 12 14 22 24 24 27 29 37 35 39 42 49 50 51 59 64
78 72 67 73 67 61 60 64 62 58 56 53 38 42 42 39 40 31 27 27 22 20 19 25 15 14 13 18 17 13 14 21 28 32 34 34 42 47 47 44 51 51 55 47
74 66 59 57 57 61 62 64 63 58 55 55 48 52 40 42 40 36 32 36 23 22 22 23 20 18 16 17 19 19 15 16 23 33 36 38 51 45 44 50 56 59 58 63
64 56 51 54 62 65 63 66 62 57 54 54 51 51 44 47 43 38 37 35 33 31 28 30 20 17 18 18 17 20 20 16 19 27 36 43 48 52 48 52 57 57 56 63
58 51 48 51 56 57 58 59 56 50 51 52 51 49 45 46 45 42 42 37 35 32 28 28 27 39 16 25 20 15 18 21 18 18 22 30 47 56 54 54 58 58 59 59
54 52 52 52 57 61 57 53 55 53 54 53 51 50 50 50 46 48 45 41 37 35 32 28 30 29 28 32 28 22 20 31 21 20 24 31 38 54 59 57 59 59 64 68
56 55 59 62 66 60 51 61 59 59 57 57 56 53 52 51 50 53 48 45 40 37 36 32 28 29 35 31 30 30 27 31 40 39 23 26 31 36 41 44 47 51 55 58
67 64 63 66 67 60 60 62 63 57 58 60 56 53 52 51 50 51 53 52 45 42 38 38 33 33 35 33 36 32 35 44 31 30 34 33 34 34 37 39 43 46 52 56
58 60 66 70 69 63 64 67 67 61 58 59 57 54 55 53 51 58 58 55 50 47 46 38 36 38 38 37 39 36 40 40 39 39 40 40 41 41 54 42 45 49 51 54
63 64 65 71 72 67 68 68 66 60 61 67 59 56 60 57 61 62 59 53 47 50 41 38 40 40 41 43 46 49 45 43 45 48 48 46 47 50 49 49 50 52 54 59
72 70 68 72 72 51 68 70 67 64 68 68 61 60 62 60 64 64 51 59 57 52 52 50 45 45 46 43 46 49 47 49 49 50 51 51 52 53 55 56 55 57 58 62
77 71 70 74 72 69 71 71 70 69 70 68 65 65 67 66 65 65 58 61 56 57 57 58 48 48 50 51 37 52 53 53 51 57 56 56 56 58 60 61 62 61 64 65
75 74 69 72 74 73 74 72 69 68 67 69 70 65 68 67 64 68 66 64 60 62 58 61 61 52 54 55 56 57 56 56 54 61 60 64 62 63 64 65 66 67 67 69
77 76 75 74 78 61 74 71 70 68 69 68 70 70 67 70 66 64 66 70 66 63 55 53 56 56 58 59 61 60 62 59 62 67 64 67 68 67 67 68 70 71 72 74
76 76 76 70 77 74 71 67 71 70 71 72 49 72 71 67 66 64 62 66 64 61 65 59 58 64 59 64 63 63 64 70 66 75 72 71 73 71 72 73 75 76 77 74
Wind_Direction
281 285 275 284 280 284 290 279 278 291 278 294 306 303 312 317 320 324 297 284 288 285 277 249 232 230 244 227 225 232 217 220 221 241 229 244 246 248 240 243 246 263 253 251
260 279 277 277 277 279 271 276 273 285 286 292 301 308 301 308 314 321 298 287 290 291 269 275 279 251 285 247 220 230 228 220 229 229 237 245 236 235 254 253 243 250 275 276
274 270 277 252 274 265 270 277 279 284 291 287 291 301 302 305 312 324 307 306 275 273 277 289 272 266 263 234 213 214 219 223 223 229 238 240 246 250 247 248 245 257 263 275
273 274 271 271 270 269 274 263 272 280 290 272 282 300 301 301 314 317 320 306 264 263 269 282 252 235 235 213 218 216 214 228 226 238 236 237 255 240 245 247 259 259 268 269
266 267 269 272 268 267 266 266 274 278 284 279 278 297 296 296 306 304 321 311 304 266 282 283 233 228 236 223 217 217 217 226 235 246 230 235 248 256 262 259 253 254 270 265
263 267 268 262 265 264 262 267 274 271 273 278 274 300 293 293 299 306 332 313 298 285 265 282 251 224 227 233 225 223 221 224 227 232 231 238 238 252 247 266 260 255 264 262
256 261 264 269 271 259 250 258 260 266 271 272 276 298 289 287 294 294 316 344 310 294 296 273 261 238 234 236 234 235 236 227 230 242 235 249 246 248 247 251 261 254 256 258
258 263 263 263 261 259 255 251 251 245 261 261 269 281 288 277 287 303 311 322 322 291 281 275 270 246 238 230 223 230 237 235 239 241 243 247 250 253 250 255 258 259 261 266
253 255 258 258 257 259 245 252 246 246 250 251 259 268 282 275 284 292 288 291 311 336 250 264 253 264 257 254 242 233 233 243 237 242 243 252 243 248 262 253 255 254 257 261
251 252 256 258 256 263 259 247 240 244 244 250 251 263 276 269 272 274 283 288 297 305 341 304 263 261 245 245 251 256 250 241 253 259 242 245 246 247 250 262 268 265 265 266
250 252 255 256 258 253 252 247 245 239 237 243 246 249 269 261 261 263 256 280 295 286 290 305 334 274 251 255 257 245 242 245 245 240 238 239 242 245 242 237 244 251 255 256
252 249 248 253 250 251 251 244 243 235 235 240 244 239 253 261 255 250 253 251 260 273 290 271 322 268 342 318 261 250 244 247 250 248 239 231 228 231 237 245 251 250 258 262
247 246 246 249 253 246 241 241 241 239 233 237 238 241 255 247 248 245 247 241 260 270 278 263 280 311 272 335 328 306 257 234 237 245 241 243 232 237 246 249 257 257 263 269
239 241 240 240 237 231 232 233 234 233 230 236 238 245 238 234 243 249 243 240 250 257 264 267 281 283 300 287 329 332 306 258 239 247 250 245 246 260 246 254 274 267 273 271
234 232 234 233 233 232 225 229 226 226 223 228 232 238 233 231 236 245 246 245 241 238 249 261 269 287 273 306 298 323 335 316 262 256 245 249 251 257 262 262 266 270 266 284
229 226 225 219 218 223 226 225 227 224 223 225 227 232 237 231 234 241 245 247 249 255 252 258 258 261 289 258 283 284 305 316 309 284 266 253 248 260 267 268 268 268 278 281
221 224 218 207 211 214 215 220 222 223 218 224 226 231 232 229 230 239 244 248 251 251 253 262 263 265 271 258 263 273 281 280 297 287 270 270 266 261 266 270 269 282 285 284
212 218 218 210 213 211 207 217 217 217 217 218 227 228 230 230 230 234 245 246 246 251 260 264 267 270 258 266 276 274 295 276 275 283 290 281 273 271 270 271 271 272 273 273
212 209 210 209 213 208 208 214 216 216 215 218 227 229 233 228 234 240 241 247 251 253 256 262 265 266 266 279 273 284 281 259 288 293 281 279 286 283 277 277 275 274 274 275
216 211 211 208 212 205 209 215 217 215 215 221 226 230 232 228 238 239 240 244 247 253 256 258 261 269 272 276 270 289 281 292 279 288 292 290 291 284 284 284 286 286 286 285
213 213 211 212 212 208 209 215 217 214 219 224 225 228 230 229 231 238 239 245 253 252 257 255 261 266 270 272 269 268 271 289 291 288 290 295 291 291 292 289 288 288 292 292
212 213 211 210 213 224 209 215 217 211 223 225 227 227 229 232 235 239 247 245 250 253 255 258 261 266 271 274 273 277 287 294 293 292 296 295 294 292 291 292 292 289 292 292
215 213 214 209 207 212 215 217 217 216 220 227 226 226 228 232 233 236 242 248 253 255 257 261 263 266 272 273 280 282 282 293 289 296 299 297 294 292 293 294 296 297 297 295
217 214 217 212 209 211 213 215 219 221 222 226 231 229 229 235 236 238 241 251 259 258 258 262 267 268 273 273 277 284 288 292 285 297 298 300 296 293 294 295 296 296 295 297
217 216 215 212 210 210 210 215 220 222 226 229 231 235 232 233 236 238 244 249 255 262 264 265 270 270 276 274 284 284 292 287 293 298 296 299 298 295 295 295 296 296 297 299
217 218 215 216 213 210 213 220 220 225 228 229 233 234 237 238 238 243 248 246 253 261 265 267 268 274 274 282 282 287 288 292 291 298 297 297 298 297 295 296 297 297 299 298